Home   Weather   Hürth   Past weeks

Flag for Germany Past Weather in Hürth, North Rhine-Westphalia, Germany — Yesterday and Last 2 Weeks

Now
46 °F

Cool.


Feels Like: 44 °F
Forecast: 39 / 64 °F
Wind: 6 mph from Northwest

Location: Noervenich

Current Time: Apr 29, 2017 at 11:35:04 am

Latest Report: Apr 29, 2017 at 10:20 am


Visibility: N/A

Pressure: 30.07 "Hg

Humidity: 57%

Dew Point: 32 °F

Location of HürthLocation

Past Weather in Hürth — Graph

°F

Hürth Temperature Yesterday

Maximum temperature yesterday: 52 °F (at 3:20 pm)
Minimum temperature yesterday: 34 °F (at 5:20 am)
Average temperature yesterday: 44 °F

High & Low Weather Summary for the Past Weeks

 TemperatureHumidityPressure
High59 °F (Apr 24, 3:20 pm)94% (Apr 15, 12:58 pm)30.63 "Hg (Apr 15, 12:58 pm)
Low27 °F (Apr 20, 5:20 am)32% (Apr 20, 6:20 pm)29.71 "Hg (Apr 25, 2:20 am)
Average44 °F66%30.14 "Hg
* Reported Apr 14 10:20 am — Apr 29 10:20 am, Hürth, Weather by CustomWeather, © 2017

Note: Actual official high and low records may vary slightly from our data, if they occured in-between our weather recording intervals... More about our weather records

Advertising

Hürth Weather History for the Previous 24 Hours

Scroll right to see more
 ConditionsComfort  
Time TempWeatherWind HumidityBarometerVisibility
10:20 am
Sat, Apr 29
46 °FCool.6 mph57%30.07 "HgN/A
9:20 am46 °FCool.5 mph66%30.07 "HgN/A
8:20 am41 °FQuite cool.1 mph76%30.07 "HgN/A
7:20 am39 °FChilly.1 mph81%30.07 "HgN/A
6:20 am36 °FChilly.5 mph87%30.07 "HgN/A
5:20 am36 °FPassing clouds.5 mph87%30.07 "HgN/A
4:20 am37 °FPassing clouds.7 mph87%30.07 "HgN/A
3:20 am37 °FPassing clouds.7 mph81%30.04 "HgN/A
2:20 am39 °FPassing clouds.8 mph81%30.04 "HgN/A
1:20 am43 °FPassing clouds.7 mph81%30.04 "HgN/A
12:20 am45 °FPassing clouds.8 mph76%30.04 "HgN/A
11:20 pm
Fri, Apr 28
43 °FPassing clouds.8 mph81%30.01 "HgN/A
10:20 pm45 °FPassing clouds.5 mph81%30.01 "HgN/A
9:20 pm46 °FCool.7 mph76%29.98 "HgN/A
8:20 pm48 °FCool.9 mph71%29.98 "HgN/A
7:20 pm50 °FCool.9 mph67%29.98 "HgN/A
6:20 pm48 °FCool.2 mph76%29.98 "HgN/A
5:20 pm50 °FCool.7 mph71%29.95 "HgN/A
4:20 pm46 °FCool.15 mph82%29.95 "Hg4 mi
3:20 pm52 °FCool.12 mph54%29.95 "HgN/A
2:20 pm50 °FCool.8 mph58%29.95 "HgN/A
1:20 pm48 °FPartly sunny.12 mph66%29.95 "HgN/A
12:20 pm46 °FPartly sunny.13 mph66%29.95 "HgN/A
11:20 am48 °FPartly sunny.7 mph58%29.95 "HgN/A
Weather by CustomWeather, © 2017

See weather overviewHow to use our weather pages